Regional Weather Roundup
Issued by NWS

Home | Current Version | Previous Version | Graphics & Text | Print | Product List | Glossary Off
Versions: 1 2 3 4 5 6 7 8 9 10 11 12 13 14 15 16 17 18 19 20 21 22 23 24 25 26 27 28 29 30 31 32 33 34 35 36 37 38 39 40 41 42 43 44 45 46 47 48 49 50

000
ASUS43 KLSX 030707
RWRMO

WEATHER SUMMARY FOR MISSOURI
NATIONAL WEATHER SERVICE SPRINGFIELD MO
200 AM CDT TUE MAY 03 2016

NOTE: "FAIR" INDICATES FEW OR NO CLOUDS BELOW 12,000 FEET WITH NO
       SIGNIFICANT WEATHER AND/OR OBSTRUCTIONS TO VISIBILITY.
       CURRENT SKY AND/OR WEATHER CONDITIONS ARE NOT AVAILABLE FOR
       CHILLICOTHE AND FARMINGTON.

MOZ001>031-035>038-043-044-053-054-030800-
...NORTHERN AND WESTERN MISSOURI...

CITY           SKY/WX    TMP DP  RH WIND       PRES   REMARKS
KANSAS CTY INT CLEAR     47  43  86 W8        30.06F
KANSAS C DTWN  CLEAR     47  44  90 CALM      30.06F
LEE`S SUMMIT   CLEAR     45  43  93 W5        30.06F
ST JOSEPH      PTCLDY    42  41  96 CALM      30.07S
CHILLICOTHE      N/A     42  41  96 CALM      30.07S
KIRKSVILLE     PTCLDY    40  38  93 NW3       30.05F FOG

$$
MOZ066>068-077>081-088>096-101>105-030800-
...SOUTHWEST MISSOURI...

CITY           SKY/WX    TMP DP  RH WIND       PRES   REMARKS
SPRINGFIELD    PTCLDY    44  41  89 CALM      30.05F FOG
JOPLIN         CLEAR     44  43  96 CALM      30.08S

$$
MOZ032>034-039>042-045>050-055>058-069>072-030800-
...CENTRAL MISSOURI...

CITY           SKY/WX    TMP DP  RH WIND       PRES   REMARKS
COLUMBIA       FOG       43  43 100 CALM      30.05S VSB 1/4
JEFFERSON CITY FOG       45  45 100 CALM      30.06S VSB 3/4
ROLLA          CLOUDY    48  47  96 NW7       30.02F
SEDALIA        CLEAR     46  45  96 SW5       30.07S
WARRENSBURG    CLEAR     43  41  93 CALM      30.06S
OSAGE BEACH    MOCLDY    43  36  75 CALM      30.06S

$$
MOZ051-052-059>065-030800-
...EAST CENTRAL MISSOURI...

CITY           SKY/WX    TMP DP  RH WIND       PRES   REMARKS
ST LOUIS INTL  CLOUDY    53  48  83 NW7       30.02F
SPIRIT OF STL  CLOUDY    52  50  93 W5        30.02F
ST CHARLES     CLOUDY    52  50  93 NW7       30.02F

$$
MOZ072>076-082>087-097>100-106>115-030800-
...SOUTH CENTRAL AND SOUTHEAST MISSOURI...

CITY           SKY/WX    TMP DP  RH WIND       PRES   REMARKS
CAPE GIRARDEAU CLOUDY    54  49  83 NW5       30.00F
FARMINGTON     CLOUDY    51  48  89 NW5       30.02F
POPLAR BLUFF   CLOUDY    56  49  77 N3        30.01F
WEST PLAINS    CLOUDY    51  45  79 CALM      30.04F

$$


USA.gov is the U.S. government's official web portal to all federal, state and local government web resources and services.